Location: Marshall
(39.8477°N, 87.1868°W)
Time: 03:48:56
(UTC+00:00)

BlueWalker 3 - Pass Details

Date: 09 May 2026
Orbit: 447 x 456 km, 53.2° (Epoch: 9 June)

Event Time Altitude Azimuth Distance (km) Brightness Sun altitude
Exits shadow 07:57:35 39° 25° (NNE) 684 3.0 -25.0°
Drops below altitude 10° 08:00:01 10° 44° (NE) 1,574 5.5 -24.7°
Sets 08:02:10 0° 48° (NE) 2,449 6.8 -24.5°
